Terug naar catalogus

SITRO-AIS-27

ActiefCommunicatiePO
NORAD 59068·PAYLOAD·🇷🇺 Russia
Deze satellietnaam is nog niet bevestigd door officiële bronnen.

Gelanceerd Feb 29, 2024 vanaf Vostochny Cosmodrome

Loading…

Volgende Passages (komende 24 uur)

TLE

VersSource: Space-Track

Epoch: Sep 14, 2026, 15:08 UTC

1 59068U 24039T   26257.63120928  .00002876  00000-0  22130-3 0  9993
2 59068  95.3817 296.7242 0143194  15.0439 345.4978 14.94251852138091

Volg SITRO-AIS-27 in realtime met AllMySat

Download on the App Store